Regional Weather Roundup
Issued by NWS Spokane, WA

Home | Current Version | Previous Version | Text Only | Print | Product List | Glossary On
Versions: 1 2 3 4 5 6 7 8 9 10 11 12 13 14 15 16 17 18 19 20 21 22 23 24 25 26 27 28 29 30 31 32 33 34 35 36 37 38 39 40 41 42 43 44 45 46 47 48 49 50
867
NZUS01 KOTX 072210
RWROTX
EASTERN WASHINGTON/NORTHERN IDAHO ROUNDUP
NATIONAL WEATHER SERVICE, SPOKANE WA
200 PM PST SUN FEB 07 2016

Note: "fair" indicated few or no clouds below 12,000 feet with no
significant weather and/or obstructions to visibility.

...NORTHEAST WASHINGTON AND NORTHERN IDAHO PANHANDLE...

CITY           SKY/WX    TMP DP  RH WIND       PRES   REMARKS
SPOKANE INTL   PTSUNNY   40  31  70 NE3       30.59S
SPOKANE DOWNTO PTSUNNY   43  32  65 CALM      30.61S
COEUR D ALENE  PTSUNNY   43  30  61 CALM      30.57S
DEER PARK      CLOUDY    39  30  70 NW3       30.61S
SANDPOINT      PTSUNNY   37  32  81 E5        30.62S
BONNERS FERRY  MOCLDY    36  27  69 CALM      30.62R

...SOUTHEAST WASHINGTON AND SOUTHERN IDAHO PANHANDLE...

CITY           SKY/WX    TMP DP  RH WIND       PRES   REMARKS
WALLA WALLA    SUNNY     49  36  61 CALM      30.59F
PULLMAN/MOSCOW CLOUDY    45  30  55 SE7       30.60S
LEWISTON       MOSUNNY   46  33  60 NW5       30.61F
LOWELL           N/A     47  35  63 N3        30.62F

...COLUMBIA BASIN...

CITY           SKY/WX    TMP DP  RH WIND       PRES   REMARKS
EPHRATA        MOSUNNY   44  33  65 N6        30.61S
MOSES LAKE     SUNNY     45  34  65 CALM      30.62F
TRI CITIES     SUNNY     50  35  56 VRB3      30.63F
HERMISTON      SUNNY     51  34  52 NE7       30.59F
PENDLETON      SUNNY     52  37  56 NW8       30.56F

...EAST SLOPES CASCADES...

CITY           SKY/WX    TMP DP  RH WIND       PRES   REMARKS
THE DALLES     SUNNY     54  35  48 CALM      30.58F
YAKIMA         MOSUNNY   50  28  42 W5        30.60F
ELLENSBURG     MOSUNNY   39  27  62 CALM      30.59F
WENATCHEE      MOSUNNY   41  27  57 CALM      30.62F
OMAK           CLOUDY    33  27  78 CALM      30.64S

...SOUTHERN BRITISH COLUMBIA...

CITY           SKY/WX    TMP DP  RH WIND       PRES   REMARKS
PENTICTON      CLOUDY    37  27  65 N6        30.64F
CASTLEGAR      FLURRIES  36  25  64 CALM      30.66R
CRANBROOK      PTSUNNY   36  19  51 E6        30.54F

...WESTERN MONTANA...

CITY           SKY/WX    TMP DP  RH WIND       PRES   REMARKS
MISSOULA       SUNNY     35  22  58 CALM      30.57F

...NEIGHBORING CITIES...

CITY           SKY/WX    TMP DP  RH WIND       PRES   REMARKS
SEATTLE        PTSUNNY   51  36  56 N9        30.55F
CALGARY        PTSUNNY   39   1  20 SW5       30.35F



USA.gov is the U.S. government's official web portal to all federal, state and local government web resources and services.